Regional Weather Roundup
Issued by NWS

Home | Current Version | Previous Version | Text Only | Print | Product List | Glossary Off
Versions: 1 2 3 4 5 6 7 8 9 10 11 12 13 14 15 16 17 18 19 20 21 22 23 24 25 26 27 28 29 30 31 32 33 34 35 36 37 38 39 40 41 42 43 44 45 46 47 48 49 50

000
ASUS43 KOAX 272314
RWRNE

WEATHER ROUNDUP FOR NEBRASKA
NATIONAL WEATHER SERVICE OMAHA NE
500 PM CST TUE JAN 27 2015

NOTES: SATELLITE DATA IS BEING USED TO AUGMENT CLOUD COVER ABOVE
       12000 FEET.
       "FAIR" INDICATES FEW OR NO CLOUDS BELOW 12,000 FEET WITH NO
       SIGNIFICANT WEATHER AND/OR OBSTRUCTIONS TO VISIBILITY.

  * THESE STATIONS DO NOT REPORT WEATHER SUCH AS RAIN...SNOW OR FOG.

NEZ001>004-019>022-054>056-280000-
NEBRASKA PANHANDLE

CITY           SKY/WX    TMP DP  RH WIND       PRES   REMARKS
SCOTTSBLUFF      N/A    N/A N/A N/A MISG      29.96F
ALLIANCE       CLEAR     66  30  26 SW7       29.95F
CHADRON        CLEAR     66  32  28 NE3       29.92F
KIMBALL        PTCLDY    66  29  24 S7        30.00F
SIDNEY         PTCLDY    70  31  23 S3        30.00F
$$

NEZ057>060-069>072-079>082-280000-
SOUTHWEST NEBRASKA

CITY           SKY/WX    TMP DP  RH WIND       PRES   REMARKS
NORTH PLATTE   CLEAR     70  28  21 SW6       29.93F
IMPERIAL       CLEAR     72  25  17 CALM      29.96F
LEXINGTON      CLEAR     70  33  25 S5        29.92F
MC COOK        CLEAR     73  30  20 SW5       29.94F
OGALLALA       CLEAR     69  34  26 W3        29.95F
$$

NEZ005>010-023>029-035>040-094-280000-
NORTH CENTRAL NEBRASKA

CITY           SKY/WX    TMP DP  RH WIND       PRES   REMARKS
VALENTINE      CLEAR     66  36  32 S5        29.88F
AINSWORTH      CLEAR     66  33  28 CALM      29.89F
BROKEN BOW     CLEAR     67  36  31 SE6       29.91F
O`NEILL        CLEAR     58  37  46 SE8       29.92R
ORD            CLEAR     60  33  36 SE7       29.92S
THEDFORD       CLEAR     73  32  22 W3        29.92S
$$

NEZ041-046>049-061>064-073>077-083>087-280000-
SOUTH CENTRAL NEBRASKA

CITY           SKY/WX    TMP DP  RH WIND       PRES   REMARKS
GRAND ISLAND   CLEAR     60  34  37 S8        29.95F
AURORA         CLEAR     59  33  36 S9        29.96S
HASTINGS       CLEAR     64  30  27 S8        29.94F
HEBRON         CLEAR     62  31  31 SE6       29.97S
HOLDREGE       CLEAR     66  31  26 SW3       29.93F
KEARNEY *      CLEAR     64  34  32 S7        29.94S
YORK           CLEAR     57  34  41 S8        29.98R
$$

NEZ011>018-030>034-042>045-280000-
NORTHEAST NEBRASKA

CITY           SKY/WX    TMP DP  RH WIND       PRES   REMARKS
NORFOLK        CLEAR     54  35  48 SE10      29.96F
ALBION         CLEAR     55  34  44 SE8       29.95S
BLAIR          FAIR      51  32  48 E10       30.02F
COLUMBUS *     CLEAR     55  34  44 SE9       29.99F
FREMONT        CLEAR     52  32  46 SE9       30.02S
TEKAMAH        CLEAR     50  34  54 SE10      30.03S
$$

NEZ050>053-065>068-078-088>093-280000-
SOUTHEAST NEBRASKA

CITY           SKY/WX    TMP DP  RH WIND       PRES   REMARKS
LINCOLN        CLEAR     57  32  38 SE13      30.01S
OMAHA EPPLEY   PTCLDY    52  31  44 SE14      30.04S
BEATRICE       CLEAR     59  33  38 SE7       30.00S
FALLS CITY     CLEAR     53  31  42 SE9       30.04F
NEBRASKA CITY  CLEAR     52  25  35 SE10      30.04R
PLATTSMOUTH    CLEAR     52  29  40 SE12      30.03S
$$

NEZ044-045-051>053-067-280000-
OMAHA AREA

CITY           SKY/WX    TMP DP  RH WIND       PRES   REMARKS
EPPLEY FIELD   PTCLDY    52  31  44 SE14      30.04S
BLAIR          CLEAR     51  32  48 E10       30.02F
FREMONT        CLEAR     52  32  46 SE9       30.02S
MILLARD        CLEAR     53  32  45 SE9       30.03S
OFFUTT AFB     CLEAR     51  31  45 SE12      30.03S
PLATTSMOUTH    CLEAR     52  29  40 SE12      30.03S
WAHOO          FAIR      53  30  42 SE9       30.01S
$$



USA.gov is the U.S. government's official web portal to all federal, state and local government web resources and services.